Location: Ciula Mare
(45.6000°N, 22.8167°E)
Time: 10:04:56
(UTC+00:00)

Cosmos 2360 Rocket - Pass Details

Date: 03 February 2023
Orbit: 832 x 846 km, 71.0° (Epoch: 30 March)

Event Time Altitude Azimuth Distance (km) Brightness Sun altitude
Rises 18:03:00 0° 226° (SW) 3,376 5.9 -25.7°
Reaches altitude 10° 18:05:33 10° 233° (SW) 2,448 5.2 -26.1°
Maximum altitude 18:10:52 43° 304° (NW) 1,176 3.3 -27.0°
Enters shadow 18:14:57 17° 9° (N) 2,032 4.1 -27.7°
